W2DRT Weather Reports


Display with metric or nautical units.
time (UTC)temp
F
wind
direction
speed
MPH
gust
MPH
rain 1hr
in
rain 24hr
in
rain mn
in
humidity
%
barometer
mb
20260505151143 75 0.0 0.0 0.00 0.00 0.00 48 1011.9
20260505150142 74 0.0 0.0 0.00 0.00 0.00 49 1012.3
20260505140142 70 0.0 0.0 0.00 0.00 0.00 54 1012.6
20260505130135 66 0.0 0.0 0.00 0.00 0.00 61 1012.6
20260505124133 64 0.0 0.0 0.00 0.00 0.00 63 1012.6
20260505123132 64 0.0 0.0 0.00 0.00 0.00 66 1012.6
20260505122132 63 0.0 0.0 0.00 0.00 0.00 68 1012.6
20260505121131 62 0.0 0.0 0.00 0.00 0.00 70 1012.3
20260505120129 60 0.0 0.0 0.00 0.00 0.00 73 1012.6
20260505115127 59 0.0 0.0 0.00 0.00 0.00 73 1012.3
20260505114126 58 0.0 0.0 0.00 0.00 0.00 74 1012.3
20260505113125 57 0.0 0.0 0.00 0.00 0.00 74 1012.3
20260505112120 57 0.0 0.0 0.00 0.00 0.00 75 1012.3
20260505111115 56 0.0 0.0 0.00 0.00 0.00 75 1012.3
20260505110115 56 0.0 0.0 0.00 0.00 0.00 75 1012.3
20260505102108 55 0.0 0.0 0.00 0.00 0.00 74 1011.9
20260505101108 55 0.0 0.0 0.00 0.00 0.00 74 1011.6
20260505100107 55 0.0 0.0 0.00 0.00 0.00 74 1011.2
20260505095105 55 0.0 0.0 0.00 0.00 0.00 74 1011.6
20260505094104 55 0.0 0.0 0.00 0.00 0.00 73 1011.6
20260505093104 55 0.0 0.0 0.00 0.00 0.00 73 1011.9
20260505092100 55 0.0 0.0 0.00 0.00 0.00 72 1011.6
20260505091054 56 0.0 0.0 0.00 0.00 0.00 72 1011.2
20260505090049 56 0.0 0.0 0.00 0.00 0.00 71 1011.2
20260505085045 56 0.0 0.0 0.00 0.00 0.00 71 1011.2
20260505084041 57 0.0 0.0 0.00 0.00 0.00 70 1011.2
20260505083040 57 0.0 0.0 0.00 0.00 0.00 70 1011.2
20260505082039 57 0.0 0.0 0.00 0.00 0.00 70 1011.6
20260505081038 56 0.0 0.0 0.00 0.00 0.00 71 1011.2
20260505080037 56 0.0 0.0 0.00 0.00 0.00 71 1011.6
20260505075036 56 0.0 0.0 0.00 0.00 0.00 71 1011.2
20260505074036 56 0.0 0.0 0.00 0.00 0.00 70 1011.2
20260505073032 56 0.0 0.0 0.00 0.00 0.00 70 1011.2
20260505072029 56 0.0 0.0 0.00 0.00 0.00 70 1011.2
20260505071029 56 0.0 0.0 0.00 0.00 0.00 69 1011.2
20260505070027 56 0.0 0.0 0.00 0.00 0.00 69 1011.2
20260505065025 56 0.0 0.0 0.00 0.00 0.00 68 1011.2
20260505064021 56 0.0 0.0 0.00 0.00 0.00 67 1011.2
20260505063019 56 0.0 0.0 0.00 0.00 0.00 67 1011.2
20260505062020 56 0.0 0.0 0.00 0.00 0.00 66 1011.6
20260505061015 57 0.0 0.0 0.00 0.00 0.00 65 1011.2
20260505060014 57 0.0 0.0 0.00 0.00 0.00 64 1011.2
20260505055012 57 0.0 0.0 0.00 0.00 0.00 63 1011.2
20260505054008 57 0.0 0.0 0.00 0.00 0.00 63 1011.6
20260505053007 58 0.0 0.0 0.00 0.00 0.00 62 1011.6
20260505052007 58 0.0 0.0 0.00 0.00 0.00 62 1011.2
20260505051002 58 0.0 0.0 0.00 0.00 0.00 61 1011.6
20260505041000 59 0.0 0.0 0.00 0.00 0.00 58 1011.6
20260505040000 59 0.0 0.0 0.00 0.00 0.00 58 1011.2
20260505034959 59 0.0 0.0 0.00 0.00 0.00 57 1011.6
20260505033958 59 0.0 0.0 0.00 0.00 0.00 57 1011.6
20260505032953 59 0.0 0.0 0.00 0.00 0.00 56 1011.6
20260505031952 59 0.0 0.0 0.00 0.00 0.00 56 1011.6
20260505030952 60 0.0 0.0 0.00 0.00 0.00 55 1011.6
20260505025949 60 0.0 0.0 0.00 0.00 0.00 54 1011.2
20260505024945 60 0.0 0.0 0.00 0.00 0.00 53 1011.9
20260505023945 60 0.0 0.0 0.00 0.00 0.00 52 1011.6
20260505022946 60 0.0 0.0 0.00 0.00 0.00 51 1011.6
20260505021940 60 0.0 0.0 0.00 0.00 0.00 50 1011.9
20260505020938 61 0.0 0.0 0.00 0.00 0.00 48 1011.9
20260505015936 61 0.0 0.0 0.00 0.00 0.00 46 1011.9
20260505014931 61 0.0 0.0 0.00 0.00 0.00 45 1011.6
20260505013930 62 0.0 0.0 0.00 0.00 0.00 43 1011.9
20260505012925 62 0.0 0.0 0.00 0.00 0.00 41 1011.6
20260505011925 63 0.0 0.0 0.00 0.00 0.00 39 1011.6
20260505010924 64 0.0 0.0 0.00 0.00 0.00 37 1011.2
20260505005922 64 0.0 0.0 0.00 0.00 0.00 35 1011.2
20260505004922 65 0.0 0.0 0.00 0.00 0.00 34 1011.2
20260505003921 65 0.0 0.0 0.00 0.00 0.00 33 1011.2
20260505002920 66 0.0 0.0 0.00 0.00 0.00 33 1010.9
20260505001915 66 0.0 0.0 0.00 0.00 0.00 32 1011.2
20260505000910 67 0.0 0.0 0.00 0.00 0.00 31 1011.2
20260504235910 68 0.0 0.0 0.00 0.00 0.00 29 1010.9
20260504234909 68 0.0 0.0 0.00 0.00 0.00 28 1010.6
20260504233909 69 0.0 0.0 0.00 0.00 0.00 28 1010.6
20260504232908 70 0.0 0.0 0.00 0.00 0.00 27 1010.6
20260504231907 71 0.0 0.0 0.00 0.00 0.00 26 1010.2
20260504230906 71 0.0 0.0 0.00 0.00 0.00 25 1010.6
20260504225902 72 0.0 0.0 0.00 0.00 0.00 23 1010.6
20260504224902 72 0.0 0.0 0.00 0.00 0.00 22 1010.6
20260504223901 73 0.0 0.0 0.00 0.00 0.00 22 1010.6
20260504222858 74 0.0 0.0 0.00 0.00 0.00 21 1010.6
20260504221854 75 0.0 0.0 0.00 0.00 0.00 20 1010.6
20260504220854 76 0.0 0.0 0.00 0.00 0.00 18 1010.6
20260504215853 79 0.0 0.0 0.00 0.00 0.00 13 1010.6
20260504214851 83 0.0 0.0 0.00 0.00 0.00 13 1010.6
20260504213850 87 0.0 0.0 0.00 0.00 0.00 13 1010.6
20260504212850 87 0.0 0.0 0.00 0.00 0.00 11 1010.6
20260504211849 87 0.0 0.0 0.00 0.00 0.00 11 1010.6
20260504210849 86 0.0 0.0 0.00 0.00 0.00 18 1010.9
20260504205848 85 0.0 0.0 0.00 0.00 0.00 19 1010.6
20260504204844 83 0.0 0.0 0.00 0.00 0.00 21 1010.6
20260504203842 80 0.0 0.0 0.00 0.00 0.00 24 1010.6
20260504202840 77 0.0 0.0 0.00 0.00 0.00 27 1010.9
20260504201839 74 0.0 0.0 0.00 0.00 0.00 27 1010.9
20260504200834 74 0.0 0.0 0.00 0.00 0.00 27 1010.6
20260504195833 74 0.0 0.0 0.00 0.00 0.00 26 1010.9
20260504194831 75 0.0 0.0 0.00 0.00 0.00 27 1010.9
20260504193829 74 0.0 0.0 0.00 0.00 0.00 28 1011.2
20260504192825 74 0.0 0.0 0.00 0.00 0.00 28 1011.2
20260504191821 74 0.0 0.0 0.00 0.00 0.00 27 1011.6
20260504190819 74 0.0 0.0 0.00 0.00 0.00 27 1011.2
20260504185818 74 0.0 0.0 0.00 0.00 0.00 28 1011.9
20260504184817 73 0.0 0.0 0.00 0.00 0.00 29 1011.9
20260504183815 73 0.0 0.0 0.00 0.00 0.00 29 1011.9
20260504182810 73 0.0 0.0 0.00 0.00 0.00 30 1012.3
20260504181810 73 0.0 0.0 0.00 0.00 0.00 32 1012.3
20260504180807 72 0.0 0.0 0.00 0.00 0.00 31 1012.6
20260504175802 72 0.0 0.0 0.00 0.00 0.00 32 1012.6
20260504174803 72 0.0 0.0 0.00 0.00 0.00 34 1012.6
20260504173802 71 0.0 0.0 0.00 0.00 0.00 34 1012.9
20260504172802 71 0.0 0.0 0.00 0.00 0.00 34 1012.9
20260504171800 71 0.0 0.0 0.00 0.00 0.00 36 1012.9
20260504170755 70 0.0 0.0 0.00 0.00 0.00 34 1013.3